Time,TemperatureF,DewpointF,PressureIn,WindDirection,WindDirectionDegrees,WindSpeedMPH,WindSpeedGustMPH,Humidity,HourlyPrecipIn,Conditions,Clouds,dailyrainin,SoftwareType,DateUTC
2013-04-09 00:00:00,61.3,49.9,30.13,SSW,197,0.0,0.0,66,0.00,,SKC,0.00,VWS V14.01,2013-04-09 04:00:00,
2013-04-09 00:01:00,61.3,49.9,30.13,SSW,198,0.0,0.0,66,0.00,,SKC,0.00,VWS V14.01,2013-04-09 04:01:00,
2013-04-09 00:03:00,61.2,49.8,30.13,SSW,198,0.0,0.0,66,0.00,,SKC,0.00,VWS V14.01,2013-04-09 04:03:00,
2013-04-09 00:07:00,61.1,49.7,30.13,SSW,197,0.0,0.0,66,0.00,,SKC,0.00,VWS V14.01,2013-04-09 04:07:00,
2013-04-09 00:12:00,60.9,49.5,30.13,SSW,198,0.0,0.0,66,0.00,,SKC,0.00,VWS V14.01,2013-04-09 04:12:00,
2013-04-09 00:18:00,60.9,49.9,30.13,SSW,198,0.0,0.0,67,0.00,,SKC,0.00,VWS V14.01,2013-04-09 04:18:00,
2013-04-09 00:23:00,61.1,49.7,30.13,SSW,199,0.0,0.0,66,0.00,,SKC,0.00,VWS V14.01,2013-04-09 04:23:00,
2013-04-09 00:29:00,61.1,49.7,30.13,SSW,197,0.0,0.0,66,0.00,,SKC,0.00,VWS V14.01,2013-04-09 04:29:00,
2013-04-09 00:30:00,61.1,49.7,30.13,SSW,197,0.0,0.0,66,0.00,,SKC,0.00,VWS V14.01,2013-04-09 04:30:00,
2013-04-09 00:34:00,61.1,50.1,30.13,SSW,198,0.0,0.0,67,0.00,,SKC,0.00,VWS V14.01,2013-04-09 04:34:00,
2013-04-09 00:40:00,60.8,50.2,30.13,SSW,198,0.0,0.0,68,0.00,,SKC,0.00,VWS V14.01,2013-04-09 04:40:00,
2013-04-09 00:46:00,60.4,49.8,30.13,SSW,197,0.0,0.0,68,0.00,,SKC,0.00,VWS V14.01,2013-04-09 04:46:00,
2013-04-09 00:51:00,60.0,50.2,30.13,SSW,197,0.0,0.0,70,0.00,,SKC,0.00,VWS V14.01,2013-04-09 04:51:00,
2013-04-09 00:57:00,59.4,50.0,30.13,SSW,197,0.0,0.0,71,0.00,,SKC,0.00,VWS V14.01,2013-04-09 04:57:00,
2013-04-09 01:00:00,59.2,49.8,30.13,SSW,195,0.0,0.0,71,0.00,,SKC,0.00,VWS V14.01,2013-04-09 05:00:00,
2013-04-09 01:02:00,59.0,50.0,30.13,SSW,195,0.0,0.0,72,0.00,,SKC,0.00,VWS V14.01,2013-04-09 05:02:00,
2013-04-09 01:07:00,58.8,49.8,30.13,SSW,195,0.0,0.0,72,0.00,,SKC,0.00,VWS V14.01,2013-04-09 05:07:00,
2013-04-09 01:13:00,58.6,50.0,30.13,SSW,196,0.0,0.0,73,0.00,,SKC,0.00,VWS V14.01,2013-04-09 05:13:00,
2013-04-09 01:19:00,58.4,49.8,30.13,SSW,196,0.0,0.0,73,0.00,,SKC,0.00,VWS V14.01,2013-04-09 05:19:00,
2013-04-09 01:24:00,58.3,49.7,30.13,SSW,195,0.0,0.0,73,0.00,,SKC,0.00,VWS V14.01,2013-04-09 05:24:00,
2013-04-09 01:30:00,58.3,49.7,30.13,SSW,195,0.0,0.0,73,0.00,,SKC,0.00,VWS V14.01,2013-04-09 05:30:00,
2013-04-09 01:35:00,58.6,49.6,30.13,SSW,196,0.0,0.0,72,0.00,,SKC,0.00,VWS V14.01,2013-04-09 05:35:00,
2013-04-09 01:41:00,58.7,49.7,30.13,SSW,196,0.0,0.0,72,0.00,,SKC,0.00,VWS V14.01,2013-04-09 05:41:00,
2013-04-09 01:48:00,58.7,49.7,30.13,SSW,195,0.0,0.0,72,0.00,,SKC,0.00,VWS V14.01,2013-04-09 05:48:00,
2013-04-09 01:53:00,58.7,49.7,30.13,SSW,195,0.0,0.0,72,0.00,,SKC,0.00,VWS V14.01,2013-04-09 05:53:00,
2013-04-09 01:59:00,58.7,49.7,30.13,SSW,196,0.0,0.0,72,0.00,,SKC,0.00,VWS V14.01,2013-04-09 05:59:00,
2013-04-09 02:00:00,58.7,49.7,30.13,SSW,195,0.0,0.0,72,0.00,,SKC,0.00,VWS V14.01,2013-04-09 06:00:00,
2013-04-09 02:04:00,58.6,49.6,30.13,SSW,196,0.0,0.0,72,0.00,,SKC,0.00,VWS V14.01,2013-04-09 06:04:00,
2013-04-09 02:10:00,58.6,49.6,30.13,SSW,195,0.0,0.0,72,0.00,,SKC,0.00,VWS V14.01,2013-04-09 06:10:00,
2013-04-09 02:16:00,58.7,49.7,30.12,SSW,195,0.0,0.0,72,0.00,,SKC,0.00,VWS V14.01,2013-04-09 06:16:00,
2013-04-09 02:21:00,58.7,50.1,30.13,SSW,195,0.0,0.0,73,0.00,,SKC,0.00,VWS V14.01,2013-04-09 06:21:00,
2013-04-09 02:27:00,58.7,50.1,30.13,SSW,196,0.0,0.0,73,0.00,,SKC,0.00,VWS V14.01,2013-04-09 06:27:00,
2013-04-09 02:30:00,58.5,49.9,30.13,SSW,196,0.0,0.0,73,0.00,,SKC,0.00,VWS V14.01,2013-04-09 06:30:00,
2013-04-09 02:32:00,58.2,49.6,30.12,SSW,195,0.0,0.0,73,0.00,,SKC,0.00,VWS V14.01,2013-04-09 06:32:00,
2013-04-09 02:38:00,57.8,49.6,30.13,SSW,195,0.0,0.0,74,0.00,,SKC,0.00,VWS V14.01,2013-04-09 06:38:00,
2013-04-09 02:43:00,57.4,49.5,30.13,SSW,195,0.0,0.0,75,0.00,,SKC,0.00,VWS V14.01,2013-04-09 06:43:00,
2013-04-09 02:49:00,57.1,49.6,30.13,SSW,196,0.0,0.0,76,0.00,,SKC,0.00,VWS V14.01,2013-04-09 06:49:00,
2013-04-09 02:57:00,56.5,49.4,30.13,SSW,195,0.0,0.0,77,0.00,,SKC,0.00,VWS V14.01,2013-04-09 06:57:00,
2013-04-09 03:00:00,56.4,49.6,30.12,SSW,195,0.0,0.0,78,0.00,,SKC,0.00,VWS V14.01,2013-04-09 07:00:00,
2013-04-09 03:03:00,56.2,49.4,30.12,SSW,195,0.0,0.0,78,0.00,,SKC,0.00,VWS V14.01,2013-04-09 07:03:00,
2013-04-09 03:08:00,55.9,49.5,30.12,SSW,195,0.0,0.0,79,0.00,,SKC,0.00,VWS V14.01,2013-04-09 07:08:00,
2013-04-09 03:15:00,55.7,49.3,30.12,SSW,195,0.0,0.0,79,0.00,,SKC,0.00,VWS V14.01,2013-04-09 07:15:00,
2013-04-09 03:22:00,55.4,49.3,30.12,SSW,196,0.0,0.0,80,0.00,,SKC,0.00,VWS V14.01,2013-04-09 07:22:00,
2013-04-09 03:28:00,55.3,49.2,30.12,SSW,196,0.0,0.0,80,0.00,,SKC,0.00,VWS V14.01,2013-04-09 07:28:00,
2013-04-09 03:30:00,55.3,49.2,30.12,SSW,195,0.0,0.0,80,0.00,,SKC,0.00,VWS V14.01,2013-04-09 07:30:00,
2013-04-09 03:33:00,55.3,49.2,30.12,SSW,196,0.0,0.0,80,0.00,,SKC,0.00,VWS V14.01,2013-04-09 07:33:00,
2013-04-09 03:39:00,55.4,49.3,30.13,SSW,195,0.0,0.0,80,0.00,,SKC,0.00,VWS V14.01,2013-04-09 07:39:00,
2013-04-09 03:46:00,55.7,49.6,30.13,SSW,195,0.0,0.0,80,0.00,,SKC,0.00,VWS V14.01,2013-04-09 07:46:00,
2013-04-09 03:51:00,55.8,49.4,30.13,SSW,195,0.0,0.0,79,0.00,,SKC,0.00,VWS V14.01,2013-04-09 07:51:00,
2013-04-09 03:56:00,55.9,49.5,30.13,SSW,195,0.0,0.0,79,0.00,,SKC,0.00,VWS V14.01,2013-04-09 07:56:00,
2013-04-09 04:00:00,55.8,49.4,30.13,SSW,195,0.0,0.0,79,0.00,,SKC,0.00,VWS V14.01,2013-04-09 08:00:00,
2013-04-09 04:02:00,55.8,49.4,30.13,SSW,195,0.0,0.0,79,0.00,,SKC,0.00,VWS V14.01,2013-04-09 08:02:00,
2013-04-09 04:07:00,55.6,49.5,30.13,SSW,195,0.0,0.0,80,0.00,,SKC,0.00,VWS V14.01,2013-04-09 08:07:00,
2013-04-09 04:13:00,55.4,49.3,30.13,SSW,195,0.0,0.0,80,0.00,,SKC,0.00,VWS V14.01,2013-04-09 08:13:00,
2013-04-09 04:19:00,55.4,49.7,30.13,SSW,195,0.0,0.0,81,0.00,,SKC,0.00,VWS V14.01,2013-04-09 08:19:00,
2013-04-09 04:24:00,55.4,49.7,30.13,SSW,196,0.0,0.0,81,0.00,,SKC,0.00,VWS V14.01,2013-04-09 08:24:00,
2013-04-09 04:30:00,55.4,49.7,30.13,SSW,196,0.0,0.0,81,0.00,,SKC,0.00,VWS V14.01,2013-04-09 08:30:00,
2013-04-09 04:35:00,55.4,49.7,30.13,SSW,196,0.0,0.0,81,0.00,,SKC,0.00,VWS V14.01,2013-04-09 08:35:00,
2013-04-09 04:41:00,55.3,49.6,30.14,SSW,196,0.0,0.0,81,0.00,,SKC,0.00,VWS V14.01,2013-04-09 08:41:00,
2013-04-09 04:48:00,55.1,49.7,30.14,SSW,195,0.0,0.0,82,0.00,,SKC,0.00,VWS V14.01,2013-04-09 08:48:00,
2013-04-09 04:53:00,55.3,49.9,30.14,SSW,196,0.0,0.0,82,0.00,,SKC,0.00,VWS V14.01,2013-04-09 08:53:00,
2013-04-09 04:59:00,55.5,50.1,30.14,SSW,195,0.0,0.0,82,0.00,,SKC,0.00,VWS V14.01,2013-04-09 08:59:00,
2013-04-09 05:00:00,55.5,50.1,30.14,SSW,195,0.0,0.0,82,0.00,,SKC,0.00,VWS V14.01,2013-04-09 09:00:00,
2013-04-09 05:04:00,55.4,50.0,30.14,SSW,195,0.0,0.0,82,0.00,,SKC,0.00,VWS V14.01,2013-04-09 09:04:00,
2013-04-09 05:10:00,55.5,50.1,30.14,SSW,195,0.0,0.0,82,0.00,,SKC,0.00,VWS V14.01,2013-04-09 09:10:00,
2013-04-09 05:16:00,55.5,50.1,30.14,SSW,195,0.0,0.0,82,0.00,,SKC,0.00,VWS V14.01,2013-04-09 09:16:00,
2013-04-09 05:21:00,55.4,50.0,30.14,SSW,195,0.0,0.0,82,0.00,,SKC,0.00,VWS V14.01,2013-04-09 09:21:00,
2013-04-09 05:26:00,55.4,50.3,30.14,SSW,195,0.0,0.0,83,0.00,,SKC,0.00,VWS V14.01,2013-04-09 09:26:00,
2013-04-09 05:30:00,55.4,50.3,30.15,SSW,195,0.0,0.0,83,0.00,,SKC,0.00,VWS V14.01,2013-04-09 09:30:00,
2013-04-09 05:32:00,55.3,49.9,30.15,SSW,196,0.0,0.0,82,0.00,,SKC,0.00,VWS V14.01,2013-04-09 09:32:00,
2013-04-09 05:37:00,55.1,50.0,30.15,SSW,195,0.0,0.0,83,0.00,,SKC,0.00,VWS V14.01,2013-04-09 09:37:00,
2013-04-09 05:43:00,54.9,49.8,30.15,SSW,195,0.0,0.0,83,0.00,,SKC,0.00,VWS V14.01,2013-04-09 09:43:00,
2013-04-09 05:50:00,54.7,50.0,30.15,SSW,195,0.0,0.0,84,0.00,,SKC,0.00,VWS V14.01,2013-04-09 09:50:00,
2013-04-09 05:55:00,54.5,49.8,30.15,SSW,196,0.0,0.0,84,0.00,,SKC,0.00,VWS V14.01,2013-04-09 09:55:00,
2013-04-09 06:00:00,54.3,49.6,30.16,SSW,195,0.0,0.0,84,0.00,,SKC,0.00,VWS V14.01,2013-04-09 10:00:00,
2013-04-09 06:01:00,54.3,49.6,30.16,SSW,196,0.0,0.0,84,0.00,,SKC,0.00,VWS V14.01,2013-04-09 10:01:00,
2013-04-09 06:07:00,54.0,49.3,30.16,SSW,195,0.0,0.0,84,0.00,,SKC,0.00,VWS V14.01,2013-04-09 10:07:00,
2013-04-09 06:12:00,53.7,49.0,30.16,SSW,195,0.0,0.0,84,0.00,,SKC,0.00,VWS V14.01,2013-04-09 10:12:00,
2013-04-09 06:18:00,53.4,49.0,30.16,SSW,196,0.0,0.0,85,0.00,,SKC,0.00,VWS V14.01,2013-04-09 10:18:00,
2013-04-09 06:23:00,53.2,49.1,30.16,SSW,195,0.0,0.0,86,0.00,,SKC,0.00,VWS V14.01,2013-04-09 10:23:00,
2013-04-09 06:29:00,53.1,49.0,30.17,SSW,196,0.0,0.0,86,0.00,,SKC,0.00,VWS V14.01,2013-04-09 10:29:00,
2013-04-09 06:30:00,53.1,49.0,30.17,SSW,196,0.0,0.0,86,0.00,,SKC,0.00,VWS V14.01,2013-04-09 10:30:00,
2013-04-09 06:35:00,53.0,48.9,30.17,SSW,195,0.0,0.0,86,0.00,,SKC,0.00,VWS V14.01,2013-04-09 10:35:00,
2013-04-09 06:40:00,52.8,48.7,30.17,SSW,196,0.0,0.0,86,0.00,,SKC,0.00,VWS V14.01,2013-04-09 10:40:00,
2013-04-09 06:46:00,52.7,48.6,30.17,SSW,195,0.0,0.0,86,0.00,,SKC,0.00,VWS V14.01,2013-04-09 10:46:00,
2013-04-09 06:51:00,52.6,48.8,30.17,SSW,196,0.0,0.0,87,0.00,,SKC,0.00,VWS V14.01,2013-04-09 10:51:00,
2013-04-09 06:57:00,52.5,48.8,30.17,SSW,195,0.0,0.0,87,0.00,,SKC,0.00,VWS V14.01,2013-04-09 10:57:00,
2013-04-09 07:00:00,52.6,48.8,30.17,SSW,195,0.0,0.0,87,0.00,,SKC,0.00,VWS V14.01,2013-04-09 11:00:00,
2013-04-09 07:02:00,52.5,48.8,30.18,SSW,195,0.0,0.0,87,0.00,,SKC,0.00,VWS V14.01,2013-04-09 11:02:00,
2013-04-09 07:08:00,52.4,48.7,30.17,SSW,196,0.0,0.0,87,0.00,,SKC,0.00,VWS V14.01,2013-04-09 11:08:00,
2013-04-09 07:15:00,52.5,48.8,30.18,SSW,195,0.0,0.0,87,0.00,,SKC,0.00,VWS V14.01,2013-04-09 11:15:00,
2013-04-09 07:21:00,52.5,48.8,30.18,SSW,196,0.0,0.0,87,0.00,,SKC,0.00,VWS V14.01,2013-04-09 11:21:00,
2013-04-09 07:26:00,52.6,48.8,30.18,SSW,194,0.0,0.0,87,0.00,,SKC,0.00,VWS V14.01,2013-04-09 11:26:00,
2013-04-09 07:30:00,52.8,49.0,30.18,SSW,195,0.0,0.0,87,0.00,,SKC,0.00,VWS V14.01,2013-04-09 11:30:00,
2013-04-09 07:32:00,53.0,49.2,30.18,SSW,194,0.0,0.0,87,0.00,,SKC,0.00,VWS V14.01,2013-04-09 11:32:00,
2013-04-09 07:37:00,53.5,49.7,30.18,SSW,194,0.0,0.0,87,0.00,,SKC,0.00,VWS V14.01,2013-04-09 11:37:00,
2013-04-09 07:43:00,53.9,50.1,30.18,SSW,195,0.0,0.0,87,0.00,,SKC,0.00,VWS V14.01,2013-04-09 11:43:00,
2013-04-09 07:48:00,54.5,50.4,30.19,SSW,194,0.0,0.0,86,0.00,,SKC,0.00,VWS V14.01,2013-04-09 11:48:00,
2013-04-09 07:54:00,55.3,51.2,30.19,SSW,194,0.0,0.0,86,0.00,,SKC,0.00,VWS V14.01,2013-04-09 11:54:00,
2013-04-09 07:59:00,56.0,51.6,30.19,SSW,194,0.0,0.0,85,0.00,,SKC,0.00,VWS V14.01,2013-04-09 11:59:00,
2013-04-09 08:00:00,56.0,51.6,30.19,SSW,194,0.0,0.0,85,0.00,,SKC,0.00,VWS V14.01,2013-04-09 12:00:00,
2013-04-09 08:05:00,56.7,51.9,30.19,SSW,194,0.0,0.0,84,0.00,,SKC,0.00,VWS V14.01,2013-04-09 12:05:00,
2013-04-09 08:10:00,57.4,52.3,30.19,SSW,195,0.0,0.0,83,0.00,,SKC,0.00,VWS V14.01,2013-04-09 12:10:00,
2013-04-09 08:16:00,58.3,52.8,30.20,SSW,194,0.0,0.0,82,0.00,,SKC,0.00,VWS V14.01,2013-04-09 12:16:00,
2013-04-09 08:21:00,59.1,52.9,30.20,SSW,194,0.0,0.0,80,0.00,,SKC,0.00,VWS V14.01,2013-04-09 12:21:00,
2013-04-09 08:27:00,59.6,53.1,30.20,SSW,194,0.0,0.0,79,0.00,,SKC,0.00,VWS V14.01,2013-04-09 12:27:00,
2013-04-09 08:30:00,59.9,53.4,30.20,SSW,194,0.0,0.0,79,0.00,,SKC,0.00,VWS V14.01,2013-04-09 12:30:00,
2013-04-09 08:32:00,60.2,53.7,30.20,SSW,194,0.0,0.0,79,0.00,,SKC,0.00,VWS V14.01,2013-04-09 12:32:00,
2013-04-09 08:38:00,60.8,53.5,30.21,South,184,1.0,1.0,77,0.00,,SKC,0.00,VWS V14.01,2013-04-09 12:38:00,
2013-04-09 08:43:00,61.1,53.8,30.21,South,190,0.0,1.0,77,0.00,,SKC,0.00,VWS V14.01,2013-04-09 12:43:00,
2013-04-09 08:49:00,61.4,53.8,30.21,WNW,294,0.0,1.0,76,0.00,,SKC,0.00,VWS V14.01,2013-04-09 12:49:00,
2013-04-09 08:54:00,61.5,53.9,30.21,WSW,239,0.0,1.0,76,0.00,,SKC,0.00,VWS V14.01,2013-04-09 12:54:00,
2013-04-09 09:00:00,61.7,53.7,30.21,South,186,0.0,0.0,75,0.00,,SKC,0.00,VWS V14.01,2013-04-09 13:00:00,
2013-04-09 09:06:00,62.0,54.0,30.21,SSW,198,0.0,1.0,75,0.00,,SKC,0.00,VWS V14.01,2013-04-09 13:06:00,
2013-04-09 09:11:00,62.4,54.4,30.21,South,184,1.0,1.0,75,0.00,,SKC,0.00,VWS V14.01,2013-04-09 13:11:00,
2013-04-09 09:17:00,63.1,54.3,30.21,SW,236,0.0,1.0,73,0.00,,SKC,0.00,VWS V14.01,2013-04-09 13:17:00,
2013-04-09 09:22:00,63.5,54.7,30.21,South,178,1.0,1.0,73,0.00,,SKC,0.00,VWS V14.01,2013-04-09 13:22:00,
2013-04-09 09:28:00,63.7,54.1,30.22,WNW,295,0.0,2.0,71,0.00,,SKC,0.00,VWS V14.01,2013-04-09 13:28:00,
2013-04-09 09:30:00,63.7,54.5,30.22,WNW,295,0.0,2.0,72,0.00,,SKC,0.00,VWS V14.01,2013-04-09 13:30:00,
2013-04-09 09:33:00,63.8,54.2,30.22,West,277,0.0,1.0,71,0.00,,SKC,0.00,VWS V14.01,2013-04-09 13:33:00,
2013-04-09 09:40:00,64.3,55.1,30.22,NW,314,1.0,3.0,72,0.00,,SKC,0.00,VWS V14.01,2013-04-09 13:40:00,
2013-04-09 09:46:00,64.7,55.1,30.22,SSE,165,0.0,3.0,71,0.00,,SKC,0.00,VWS V14.01,2013-04-09 13:46:00,
2013-04-09 09:51:00,65.7,54.9,30.22,WNW,291,1.0,3.0,68,0.00,,SKC,0.00,VWS V14.01,2013-04-09 13:51:00,
2013-04-09 09:57:00,65.9,55.0,30.22,WNW,297,0.0,3.0,68,0.00,,SKC,0.00,VWS V14.01,2013-04-09 13:57:00,
2013-04-09 10:00:00,66.0,55.5,30.22,WNW,296,0.0,3.0,69,0.00,,SKC,0.00,VWS V14.01,2013-04-09 14:00:00,
2013-04-09 10:03:00,66.3,55.0,30.22,WNW,287,0.0,1.0,67,0.00,,SKC,0.00,VWS V14.01,2013-04-09 14:03:00,
2013-04-09 10:13:00,67.2,55.0,30.22,SSW,197,1.0,2.0,65,0.00,,SKC,0.00,VWS V14.01,2013-04-09 14:13:00,
2013-04-09 10:20:00,68.0,55.4,30.22,WNW,299,1.0,2.0,64,0.00,,SKC,0.00,VWS V14.01,2013-04-09 14:20:00,
2013-04-09 10:27:00,68.5,55.4,30.22,SW,229,1.0,2.0,63,0.00,,SKC,0.00,VWS V14.01,2013-04-09 14:27:00,
2013-04-09 10:30:00,68.7,56.5,30.22,WSW,240,0.0,2.0,65,0.00,,SKC,0.00,VWS V14.01,2013-04-09 14:30:00,
2013-04-09 10:33:00,69.5,56.4,30.22,West,264,0.0,1.0,63,0.00,,SKC,0.00,VWS V14.01,2013-04-09 14:33:00,
2013-04-09 10:41:00,70.5,56.4,30.22,SSE,162,0.0,1.0,61,0.00,,SKC,0.00,VWS V14.01,2013-04-09 14:41:00,
2013-04-09 10:47:00,71.3,56.2,30.22,WNW,291,1.0,2.0,59,0.00,,SKC,0.00,VWS V14.01,2013-04-09 14:47:00,
2013-04-09 10:52:00,71.7,55.7,30.22,West,276,0.0,2.0,57,0.00,,SKC,0.00,VWS V14.01,2013-04-09 14:52:00,
2013-04-09 10:58:00,72.1,56.0,30.22,SSW,210,1.0,3.0,57,0.00,,SKC,0.00,VWS V14.01,2013-04-09 14:58:00,
2013-04-09 11:00:00,72.1,56.0,30.22,SSW,210,1.0,3.0,57,0.00,,SKC,0.00,VWS V14.01,2013-04-09 15:00:00,
2013-04-09 11:05:00,72.0,56.9,30.22,South,180,0.0,1.0,59,0.00,,SKC,0.00,VWS V14.01,2013-04-09 15:05:00,
2013-04-09 11:11:00,72.7,57.6,30.22,SSW,203,1.0,1.0,59,0.00,,SKC,0.00,VWS V14.01,2013-04-09 15:11:00,
2013-04-09 11:18:00,73.2,56.1,30.22,West,267,1.0,2.0,55,0.00,,SKC,0.00,VWS V14.01,2013-04-09 15:18:00,
2013-04-09 11:23:00,73.3,56.7,30.22,West,260,0.0,2.0,56,0.00,,SKC,0.00,VWS V14.01,2013-04-09 15:23:00,
2013-04-09 11:29:00,73.8,56.6,30.22,WNW,297,0.0,2.0,55,0.00,,SKC,0.00,VWS V14.01,2013-04-09 15:29:00,
2013-04-09 11:30:00,73.8,56.6,30.22,East,96,1.0,2.0,55,0.00,,SKC,0.00,VWS V14.01,2013-04-09 15:30:00,
2013-04-09 11:36:00,73.9,56.2,30.22,NW,314,0.0,2.0,54,0.00,,SKC,0.00,VWS V14.01,2013-04-09 15:36:00,
2013-04-09 11:41:00,73.6,57.0,30.22,WNW,283,0.0,2.0,56,0.00,,SKC,0.00,VWS V14.01,2013-04-09 15:41:00,
2013-04-09 11:47:00,74.2,58.0,30.22,SE,128,0.0,2.0,57,0.00,,SKC,0.00,VWS V14.01,2013-04-09 15:47:00,
2013-04-09 11:52:00,74.6,57.4,30.21,SSE,150,1.0,2.0,55,0.00,,SKC,0.00,VWS V14.01,2013-04-09 15:52:00,
2013-04-09 11:58:00,75.1,57.3,30.21,WNW,291,1.0,2.0,54,0.00,,SKC,0.00,VWS V14.01,2013-04-09 15:58:00,
2013-04-09 12:00:00,75.2,57.4,30.21,WSW,245,2.0,2.0,54,0.00,,SKC,0.00,VWS V14.01,2013-04-09 16:00:00,
2013-04-09 12:05:00,75.7,56.8,30.21,SW,236,1.0,5.0,52,0.00,,SKC,0.00,VWS V14.01,2013-04-09 16:05:00,
2013-04-09 12:12:00,76.5,57.6,30.21,WNW,301,5.0,5.0,52,0.00,,SKC,0.00,VWS V14.01,2013-04-09 16:12:00,
2013-04-09 12:18:00,76.6,56.6,30.21,South,191,1.0,5.0,50,0.00,,SKC,0.00,VWS V14.01,2013-04-09 16:18:00,
2013-04-09 12:23:00,76.8,56.2,30.21,NW,312,2.0,5.0,49,0.00,,SKC,0.00,VWS V14.01,2013-04-09 16:23:00,
2013-04-09 12:29:00,76.8,55.7,30.21,WSW,250,0.0,5.0,48,0.00,,SKC,0.00,VWS V14.01,2013-04-09 16:29:00,
2013-04-09 12:30:00,76.8,55.7,30.21,WSW,250,0.0,5.0,48,0.00,,SKC,0.00,VWS V14.01,2013-04-09 16:30:00,
2013-04-09 12:34:00,76.9,55.7,30.20,WNW,285,3.0,3.0,48,0.00,,SKC,0.00,VWS V14.01,2013-04-09 16:34:00,
2013-04-09 12:40:00,76.9,55.7,30.20,SSE,150,2.0,3.0,48,0.00,,SKC,0.00,VWS V14.01,2013-04-09 16:40:00,
2013-04-09 12:45:00,77.3,55.5,30.20,SSW,208,4.0,4.0,47,0.00,,SKC,0.00,VWS V14.01,2013-04-09 16:45:00,
2013-04-09 12:51:00,77.8,56.6,30.20,West,268,2.0,4.0,48,0.00,,SKC,0.00,VWS V14.01,2013-04-09 16:51:00,
2013-04-09 12:57:00,78.1,55.0,30.20,SW,222,1.0,4.0,45,0.00,,SKC,0.00,VWS V14.01,2013-04-09 16:57:00,
2013-04-09 13:00:00,78.2,55.8,30.20,SSE,155,2.0,4.0,46,0.00,,SKC,0.00,VWS V14.01,2013-04-09 17:00:00,
2013-04-09 13:02:00,78.2,55.8,30.20,SW,229,3.0,3.0,46,0.00,,SKC,0.00,VWS V14.01,2013-04-09 17:02:00,
2013-04-09 13:08:00,78.0,55.0,30.20,WSW,252,1.0,3.0,45,0.00,,SKC,0.00,VWS V14.01,2013-04-09 17:08:00,
2013-04-09 13:15:00,78.5,56.0,30.19,North,358,0.0,3.0,46,0.00,,SKC,0.00,VWS V14.01,2013-04-09 17:15:00,
2013-04-09 13:20:00,79.0,55.9,30.19,SW,228,2.0,3.0,45,0.00,,SKC,0.00,VWS V14.01,2013-04-09 17:20:00,
2013-04-09 13:27:00,78.3,54.6,30.19,West,262,1.0,4.0,44,0.00,,SKC,0.00,VWS V14.01,2013-04-09 17:27:00,
2013-04-09 13:30:00,77.9,54.9,30.19,West,267,0.0,4.0,45,0.00,,SKC,0.00,VWS V14.01,2013-04-09 17:30:00,
2013-04-09 13:33:00,77.8,55.4,30.19,South,170,0.0,0.0,46,0.00,,SKC,0.00,VWS V14.01,2013-04-09 17:33:00,
2013-04-09 13:38:00,78.9,55.8,30.19,SW,218,1.0,5.0,45,0.00,,SKC,0.00,VWS V14.01,2013-04-09 17:38:00,
2013-04-09 13:44:00,79.3,54.9,30.18,SSW,207,0.0,5.0,43,0.00,,SKC,0.00,VWS V14.01,2013-04-09 17:44:00,
2013-04-09 13:49:00,79.0,55.2,30.18,West,270,0.0,5.0,44,0.00,,SKC,0.00,VWS V14.01,2013-04-09 17:49:00,
2013-04-09 13:55:00,79.6,56.4,30.18,West,279,1.0,5.0,45,0.00,,SKC,0.00,VWS V14.01,2013-04-09 17:55:00,
2013-04-09 14:00:00,79.9,55.4,30.18,NE,51,1.0,5.0,43,0.00,,SKC,0.00,VWS V14.01,2013-04-09 18:00:00,
2013-04-09 14:01:00,79.6,55.2,30.18,WSW,256,1.0,3.0,43,0.00,,SKC,0.00,VWS V14.01,2013-04-09 18:01:00,
2013-04-09 14:06:00,78.6,55.5,30.18,SSE,150,3.0,3.0,45,0.00,,SKC,0.00,VWS V14.01,2013-04-09 18:06:00,
2013-04-09 14:12:00,78.5,55.4,30.18,South,191,2.0,3.0,45,0.00,,SKC,0.00,VWS V14.01,2013-04-09 18:12:00,
2013-04-09 14:17:00,79.7,57.1,30.18,ESE,113,0.0,4.0,46,0.00,,SKC,0.00,VWS V14.01,2013-04-09 18:17:00,
2013-04-09 14:23:00,80.4,55.2,30.17,WSW,248,1.0,5.0,42,0.00,,SKC,0.00,VWS V14.01,2013-04-09 18:23:00,
2013-04-09 14:29:00,81.0,53.7,30.17,NW,304,2.0,6.0,39,0.00,,SKC,0.00,VWS V14.01,2013-04-09 18:29:00,
2013-04-09 14:30:00,81.0,53.7,30.17,NW,304,2.0,6.0,39,0.00,,SKC,0.00,VWS V14.01,2013-04-09 18:30:00,
2013-04-09 14:34:00,81.0,55.1,30.17,West,259,2.0,4.0,41,0.00,,SKC,0.00,VWS V14.01,2013-04-09 18:34:00,
2013-04-09 14:40:00,81.2,55.3,30.17,WNW,282,4.0,4.0,41,0.00,,SKC,0.00,VWS V14.01,2013-04-09 18:40:00,
2013-04-09 14:47:00,81.6,55.6,30.17,SW,221,0.0,5.0,41,0.00,,SKC,0.00,VWS V14.01,2013-04-09 18:47:00,
2013-04-09 14:52:00,81.9,55.2,30.17,WNW,287,1.0,5.0,40,0.00,,SKC,0.00,VWS V14.01,2013-04-09 18:52:00,
2013-04-09 14:58:00,82.1,55.4,30.17,West,271,3.0,5.0,40,0.00,,SKC,0.00,VWS V14.01,2013-04-09 18:58:00,
2013-04-09 15:00:00,82.2,54.8,30.17,South,172,1.0,5.0,39,0.00,,SKC,0.00,VWS V14.01,2013-04-09 19:00:00,
2013-04-09 15:05:00,82.4,55.0,30.16,SW,215,2.0,2.0,39,0.00,,SKC,0.00,VWS V14.01,2013-04-09 19:05:00,
2013-04-09 15:11:00,81.9,53.8,30.16,WNW,290,5.0,5.0,38,0.00,,SKC,0.00,VWS V14.01,2013-04-09 19:11:00,
2013-04-09 15:16:00,81.6,55.6,30.16,SE,136,3.0,5.0,41,0.00,,SKC,0.00,VWS V14.01,2013-04-09 19:16:00,
2013-04-09 15:22:00,81.9,54.5,30.16,SW,229,0.0,5.0,39,0.00,,SKC,0.00,VWS V14.01,2013-04-09 19:22:00,
2013-04-09 15:29:00,82.1,54.0,30.16,WNW,293,2.0,5.0,38,0.00,,SKC,0.00,VWS V14.01,2013-04-09 19:29:00,
2013-04-09 15:30:00,82.1,54.0,30.15,WNW,293,2.0,5.0,38,0.00,,SKC,0.00,VWS V14.01,2013-04-09 19:30:00,
2013-04-09 15:34:00,82.4,54.3,30.16,West,263,1.0,2.0,38,0.00,,SKC,0.00,VWS V14.01,2013-04-09 19:34:00,
2013-04-09 15:40:00,81.6,54.3,30.15,West,281,1.0,3.0,39,0.00,,SKC,0.00,VWS V14.01,2013-04-09 19:40:00,
2013-04-09 15:46:00,80.9,54.3,30.15,SE,139,0.0,3.0,40,0.00,,SKC,0.00,VWS V14.01,2013-04-09 19:46:00,
2013-04-09 15:53:00,81.1,53.8,30.15,West,276,2.0,3.0,39,0.00,,SKC,0.00,VWS V14.01,2013-04-09 19:53:00,
2013-04-09 15:59:00,80.6,54.8,30.15,SSW,211,2.0,3.0,41,0.00,,SKC,0.00,VWS V14.01,2013-04-09 19:59:00,
2013-04-09 16:00:00,80.6,54.1,30.15,NE,38,1.0,3.0,40,0.00,,SKC,0.00,VWS V14.01,2013-04-09 20:00:00,
2013-04-09 16:04:00,80.6,55.4,30.14,WSW,250,1.0,4.0,42,0.00,,SKC,0.00,VWS V14.01,2013-04-09 20:04:00,
2013-04-09 16:10:00,80.6,54.8,30.14,SSE,160,2.0,4.0,41,0.00,,SKC,0.00,VWS V14.01,2013-04-09 20:10:00,
2013-04-09 16:15:00,80.2,54.4,30.15,SW,228,0.0,4.0,41,0.00,,SKC,0.00,VWS V14.01,2013-04-09 20:15:00,
2013-04-09 16:21:00,79.8,54.0,30.14,West,262,2.0,4.0,41,0.00,,SKC,0.00,VWS V14.01,2013-04-09 20:21:00,
2013-04-09 16:26:00,79.7,54.6,30.14,West,276,1.0,4.0,42,0.00,,SKC,0.00,VWS V14.01,2013-04-09 20:26:00,
2013-04-09 16:30:00,80.1,55.6,30.14,WSW,246,1.0,4.0,43,0.00,,SKC,0.00,VWS V14.01,2013-04-09 20:30:00,
2013-04-09 16:32:00,80.5,55.3,30.14,SSE,159,0.0,3.0,42,0.00,,SKC,0.00,VWS V14.01,2013-04-09 20:32:00,
2013-04-09 16:38:00,81.3,54.7,30.14,WNW,285,1.0,3.0,40,0.00,,SKC,0.00,VWS V14.01,2013-04-09 20:38:00,
2013-04-09 16:43:00,81.0,55.1,30.14,West,268,1.0,3.0,41,0.00,,SKC,0.00,VWS V14.01,2013-04-09 20:43:00,
2013-04-09 16:49:00,81.0,55.1,30.13,WSW,245,3.0,3.0,41,0.00,,SKC,0.00,VWS V14.01,2013-04-09 20:49:00,
2013-04-09 16:54:00,81.6,56.3,30.13,West,276,1.0,5.0,42,0.00,,SKC,0.00,VWS V14.01,2013-04-09 20:54:00,
2013-04-09 17:00:00,81.8,55.1,30.13,WSW,255,2.0,2.0,40,0.00,,SKC,0.00,VWS V14.01,2013-04-09 21:00:00,
2013-04-09 17:05:00,81.3,54.7,30.13,WNW,301,2.0,5.0,40,0.00,,SKC,0.00,VWS V14.01,2013-04-09 21:05:00,
2013-04-09 17:11:00,81.2,54.6,30.13,NW,308,3.0,5.0,40,0.00,,SKC,0.00,VWS V14.01,2013-04-09 21:11:00,
2013-04-09 17:16:00,81.1,54.5,30.13,SSE,158,2.0,5.0,40,0.00,,SKC,0.00,VWS V14.01,2013-04-09 21:16:00,
2013-04-09 17:23:00,80.7,54.2,30.13,SSE,162,1.0,5.0,40,0.00,,SKC,0.00,VWS V14.01,2013-04-09 21:23:00,
2013-04-09 17:29:00,80.7,54.8,30.13,WSW,242,1.0,5.0,41,0.00,,SKC,0.00,VWS V14.01,2013-04-09 21:29:00,
2013-04-09 17:30:00,80.7,54.8,30.13,SSE,159,0.0,5.0,41,0.00,,SKC,0.00,VWS V14.01,2013-04-09 21:30:00,
2013-04-09 17:34:00,80.6,54.8,30.13,SW,236,1.0,2.0,41,0.00,,SKC,0.00,VWS V14.01,2013-04-09 21:34:00,
2013-04-09 17:40:00,80.6,54.8,30.13,WNW,297,1.0,2.0,41,0.00,,SKC,0.00,VWS V14.01,2013-04-09 21:40:00,
2013-04-09 17:45:00,80.3,54.5,30.13,SSE,148,2.0,4.0,41,0.00,,SKC,0.00,VWS V14.01,2013-04-09 21:45:00,
2013-04-09 17:52:00,79.9,54.1,30.13,SW,214,1.0,4.0,41,0.00,,SKC,0.00,VWS V14.01,2013-04-09 21:52:00,
2013-04-09 17:58:00,79.9,54.1,30.13,SSW,194,2.0,5.0,41,0.00,,SKC,0.00,VWS V14.01,2013-04-09 21:58:00,
2013-04-09 18:00:00,79.8,54.0,30.13,SSE,157,3.0,5.0,41,0.00,,SKC,0.00,VWS V14.01,2013-04-09 22:00:00,
2013-04-09 18:05:00,79.5,53.8,30.13,SE,146,4.0,8.0,41,0.00,,SKC,0.00,VWS V14.01,2013-04-09 22:05:00,
2013-04-09 18:11:00,79.4,54.3,30.13,West,276,0.0,8.0,42,0.00,,SKC,0.00,VWS V14.01,2013-04-09 22:11:00,
2013-04-09 18:16:00,79.7,55.2,30.13,SSE,163,0.0,8.0,43,0.00,,SKC,0.00,VWS V14.01,2013-04-09 22:16:00,
2013-04-09 18:22:00,79.7,54.6,30.13,SW,236,1.0,8.0,42,0.00,,SKC,0.00,VWS V14.01,2013-04-09 22:22:00,
2013-04-09 18:27:00,79.5,54.4,30.13,NW,321,0.0,8.0,42,0.00,,SKC,0.00,VWS V14.01,2013-04-09 22:27:00,
2013-04-09 18:30:00,79.6,54.5,30.13,West,276,1.0,8.0,42,0.00,,SKC,0.00,VWS V14.01,2013-04-09 22:30:00,
2013-04-09 18:33:00,79.7,54.6,30.13,West,260,0.0,1.0,42,0.00,,SKC,0.00,VWS V14.01,2013-04-09 22:33:00,
2013-04-09 18:38:00,79.7,53.9,30.13,SE,138,3.0,3.0,41,0.00,,SKC,0.00,VWS V14.01,2013-04-09 22:38:00,
2013-04-09 18:45:00,78.9,53.9,30.13,SW,219,0.0,6.0,42,0.00,,SKC,0.00,VWS V14.01,2013-04-09 22:45:00,
2013-04-09 18:51:00,78.9,54.5,30.13,West,262,1.0,6.0,43,0.00,,SKC,0.00,VWS V14.01,2013-04-09 22:51:00,
2013-04-09 18:56:00,78.9,54.5,30.13,SW,226,4.0,6.0,43,0.00,,SKC,0.00,VWS V14.01,2013-04-09 22:56:00,
2013-04-09 19:00:00,78.7,55.0,30.13,West,278,0.0,6.0,44,0.00,,SKC,0.00,VWS V14.01,2013-04-09 23:00:00,
2013-04-09 19:01:00,78.6,54.9,30.13,WSW,238,1.0,1.0,44,0.00,,SKC,0.00,VWS V14.01,2013-04-09 23:01:00,
2013-04-09 19:07:00,78.2,55.1,30.13,NE,55,0.0,3.0,45,0.00,,SKC,0.00,VWS V14.01,2013-04-09 23:07:00,
2013-04-09 19:12:00,77.7,54.7,30.13,West,269,0.0,3.0,45,0.00,,SKC,0.00,VWS V14.01,2013-04-09 23:12:00,
2013-04-09 19:18:00,77.3,54.9,30.13,SE,138,0.0,3.0,46,0.00,,SKC,0.00,VWS V14.01,2013-04-09 23:18:00,
2013-04-09 19:24:00,76.7,55.0,30.13,ESE,122,0.0,3.0,47,0.00,,SKC,0.00,VWS V14.01,2013-04-09 23:24:00,
2013-04-09 19:29:00,76.1,55.0,30.13,SW,221,0.0,3.0,48,0.00,,SKC,0.00,VWS V14.01,2013-04-09 23:29:00,
2013-04-09 19:30:00,76.1,55.0,30.12,SW,221,0.0,3.0,48,0.00,,SKC,0.00,VWS V14.01,2013-04-09 23:30:00,
2013-04-09 19:35:00,75.5,54.5,30.12,SSW,208,0.0,1.0,48,0.00,,SKC,0.00,VWS V14.01,2013-04-09 23:35:00,
2013-04-09 19:40:00,75.0,54.6,30.12,South,169,1.0,1.0,49,0.00,,SKC,0.00,VWS V14.01,2013-04-09 23:40:00,
2013-04-09 19:46:00,74.6,54.2,30.12,SSW,198,0.0,1.0,49,0.00,,SKC,0.00,VWS V14.01,2013-04-09 23:46:00,
2013-04-09 19:51:00,74.2,54.4,30.12,SSW,212,0.0,1.0,50,0.00,,SKC,0.00,VWS V14.01,2013-04-09 23:51:00,
2013-04-09 19:57:00,73.8,54.6,30.12,SW,228,0.0,1.0,51,0.00,,SKC,0.00,VWS V14.01,2013-04-09 23:57:00,
2013-04-09 20:00:00,73.6,54.4,30.12,SSW,193,0.0,1.0,51,0.00,,SKC,0.00,VWS V14.01,2013-04-10 00:00:00,
2013-04-09 20:04:00,73.3,54.6,30.12,South,183,0.0,0.0,52,0.00,,SKC,0.00,VWS V14.01,2013-04-10 00:04:00,
2013-04-09 20:09:00,72.8,54.2,30.12,SSE,162,0.0,0.0,52,0.00,,SKC,0.00,VWS V14.01,2013-04-10 00:09:00,
2013-04-09 20:15:00,72.5,54.9,30.13,SSE,162,0.0,0.0,54,0.00,,SKC,0.00,VWS V14.01,2013-04-10 00:15:00,
2013-04-09 20:20:00,72.1,54.6,30.13,SSE,161,0.0,0.0,54,0.00,,SKC,0.00,VWS V14.01,2013-04-10 00:20:00,
2013-04-09 20:26:00,71.8,54.8,30.13,SSE,160,0.0,0.0,55,0.00,,SKC,0.00,VWS V14.01,2013-04-10 00:26:00,
2013-04-09 20:30:00,71.6,54.6,30.12,South,184,1.0,1.0,55,0.00,,SKC,0.00,VWS V14.01,2013-04-10 00:30:00,
2013-04-09 20:33:00,71.6,54.6,30.12,SSW,195,0.0,1.0,55,0.00,,SKC,0.00,VWS V14.01,2013-04-10 00:33:00,
2013-04-09 20:38:00,71.4,54.9,30.13,SSW,195,0.0,1.0,56,0.00,,SKC,0.00,VWS V14.01,2013-04-10 00:38:00,
2013-04-09 20:44:00,71.0,54.5,30.13,SSW,195,0.0,1.0,56,0.00,,SKC,0.00,VWS V14.01,2013-04-10 00:44:00,
2013-04-09 20:49:00,70.7,54.7,30.13,SSW,195,0.0,1.0,57,0.00,,SKC,0.00,VWS V14.01,2013-04-10 00:49:00,
2013-04-09 20:55:00,70.5,54.5,30.13,SSW,195,0.0,1.0,57,0.00,,SKC,0.00,VWS V14.01,2013-04-10 00:55:00,
2013-04-09 21:00:00,70.2,54.8,30.13,SSW,195,0.0,0.0,58,0.00,,SKC,0.00,VWS V14.01,2013-04-10 01:00:00,
2013-04-09 21:07:00,69.8,54.8,30.13,SSW,195,0.0,0.0,59,0.00,,SKC,0.00,VWS V14.01,2013-04-10 01:07:00,
2013-04-09 21:13:00,69.5,54.6,30.13,SSW,195,0.0,0.0,59,0.00,,SKC,0.00,VWS V14.01,2013-04-10 01:13:00,
2013-04-09 21:18:00,69.3,54.4,30.13,SSW,195,0.0,0.0,59,0.00,,SKC,0.00,VWS V14.01,2013-04-10 01:18:00,
2013-04-09 21:24:00,69.3,54.8,30.13,SSW,196,0.0,0.0,60,0.00,,SKC,0.00,VWS V14.01,2013-04-10 01:24:00,
2013-04-09 21:29:00,69.1,55.1,30.13,SSW,195,0.0,0.0,61,0.00,,SKC,0.00,VWS V14.01,2013-04-10 01:29:00,
2013-04-09 21:30:00,69.1,55.1,30.13,SSW,195,0.0,0.0,61,0.00,,SKC,0.00,VWS V14.01,2013-04-10 01:30:00,
2013-04-09 21:35:00,69.0,55.0,30.13,SSW,195,0.0,0.0,61,0.00,,SKC,0.00,VWS V14.01,2013-04-10 01:35:00,
2013-04-09 21:40:00,68.8,54.8,30.13,SSW,195,0.0,0.0,61,0.00,,SKC,0.00,VWS V14.01,2013-04-10 01:40:00,
2013-04-09 21:46:00,68.6,55.1,30.13,SSW,195,0.0,0.0,62,0.00,,SKC,0.00,VWS V14.01,2013-04-10 01:46:00,
2013-04-09 21:51:00,68.5,55.0,30.13,SSW,195,0.0,0.0,62,0.00,,SKC,0.00,VWS V14.01,2013-04-10 01:51:00,
2013-04-09 21:57:00,68.5,55.0,30.13,SSW,195,0.0,0.0,62,0.00,,SKC,0.00,VWS V14.01,2013-04-10 01:57:00,
2013-04-09 22:00:00,68.5,55.0,30.13,SSW,195,0.0,0.0,62,0.00,,SKC,0.00,VWS V14.01,2013-04-10 02:00:00,
2013-04-09 22:03:00,68.6,55.1,30.13,SSW,195,0.0,0.0,62,0.00,,SKC,0.00,VWS V14.01,2013-04-10 02:03:00,
2013-04-09 22:09:00,68.5,55.0,30.13,SSW,195,0.0,0.0,62,0.00,,SKC,0.00,VWS V14.01,2013-04-10 02:09:00,
2013-04-09 22:14:00,68.4,54.9,30.13,SSW,195,0.0,0.0,62,0.00,,SKC,0.00,VWS V14.01,2013-04-10 02:14:00,
2013-04-09 22:20:00,68.3,54.8,30.13,SSW,195,0.0,0.0,62,0.00,,SKC,0.00,VWS V14.01,2013-04-10 02:20:00,
2013-04-09 22:27:00,68.3,54.8,30.13,SSW,195,0.0,0.0,62,0.00,,SKC,0.00,VWS V14.01,2013-04-10 02:27:00,
2013-04-09 22:30:00,68.3,55.2,30.13,SSW,195,0.0,0.0,63,0.00,,SKC,0.00,VWS V14.01,2013-04-10 02:30:00,
2013-04-09 22:33:00,68.2,55.1,30.12,SSW,195,0.0,0.0,63,0.00,,SKC,0.00,VWS V14.01,2013-04-10 02:33:00,
2013-04-09 22:38:00,68.0,55.0,30.12,SSW,195,0.0,0.0,63,0.00,,SKC,0.00,VWS V14.01,2013-04-10 02:38:00,
2013-04-09 22:44:00,67.6,55.0,30.12,SSW,195,0.0,0.0,64,0.00,,SKC,0.00,VWS V14.01,2013-04-10 02:44:00,
2013-04-09 22:49:00,67.4,55.2,30.12,SSW,195,0.0,0.0,65,0.00,,SKC,0.00,VWS V14.01,2013-04-10 02:49:00,
2013-04-09 22:55:00,67.3,55.2,30.12,SSW,195,0.0,0.0,65,0.00,,SKC,0.00,VWS V14.01,2013-04-10 02:55:00,
2013-04-09 23:00:00,67.2,55.0,30.12,SSW,195,0.0,0.0,65,0.00,,SKC,0.00,VWS V14.01,2013-04-10 03:00:00,
2013-04-09 23:06:00,67.0,54.9,30.12,SSW,195,0.0,0.0,65,0.00,,SKC,0.00,VWS V14.01,2013-04-10 03:06:00,
2013-04-09 23:11:00,66.9,55.2,30.12,SSW,195,0.0,0.0,66,0.00,,SKC,0.00,VWS V14.01,2013-04-10 03:11:00,
2013-04-09 23:18:00,66.9,55.2,30.12,SSW,195,0.0,0.0,66,0.00,,SKC,0.00,VWS V14.01,2013-04-10 03:18:00,
2013-04-09 23:23:00,66.9,55.2,30.12,SSW,195,0.0,0.0,66,0.00,,SKC,0.00,VWS V14.01,2013-04-10 03:23:00,
2013-04-09 23:29:00,66.7,55.0,30.12,SSW,195,0.0,0.0,66,0.00,,SKC,0.00,VWS V14.01,2013-04-10 03:29:00,
2013-04-09 23:30:00,66.7,55.0,30.12,SSW,195,0.0,0.0,66,0.00,,SKC,0.00,VWS V14.01,2013-04-10 03:30:00,
2013-04-09 23:34:00,66.5,54.8,30.12,SSW,195,0.0,0.0,66,0.00,,SKC,0.00,VWS V14.01,2013-04-10 03:34:00,
2013-04-09 23:40:00,66.3,54.6,30.12,SSW,195,0.0,0.0,66,0.00,,SKC,0.00,VWS V14.01,2013-04-10 03:40:00,
2013-04-09 23:45:00,66.1,54.8,30.12,SSW,195,0.0,0.0,67,0.00,,SKC,0.00,VWS V14.01,2013-04-10 03:45:00,
2013-04-09 23:51:00,65.9,54.7,30.13,SSW,195,0.0,0.0,67,0.00,,SKC,0.00,VWS V14.01,2013-04-10 03:51:00,
2013-04-09 23:56:00,65.7,54.5,30.12,SSW,195,0.0,0.0,67,0.00,,SKC,0.00,VWS V14.01,2013-04-10 03:56:00,